| time (UTC) | temp F | wind direction | speed MPH | gust MPH | rain 1hr in | rain 24hr in | rain mn in | humidity % | barometer mb |
| 20260503230412 | 83 | 43 | 2.0 | 3.0 | 0.00 | 0.00 | 0.00 | 40 | 1015.0 |
| 20260503225912 | 83 | 7 | 3.0 | 4.0 | 0.00 | 0.00 | 0.00 | 40 | 1014.9 |
| 20260503225412 | 82 | 340 | 3.0 | 4.0 | 0.00 | 0.00 | 0.00 | 40 | 1015.2 |
| 20260503224913 | 82 | 74 | 6.0 | 9.0 | 0.00 | 0.00 | 0.00 | 40 | 1015.1 |
| 20260503224413 | 83 | 100 | 3.0 | 6.0 | 0.00 | 0.00 | 0.00 | 41 | 1014.9 |
| 20260503223913 | 82 | 92 | 5.0 | 9.0 | 0.00 | 0.00 | 0.00 | 41 | 1014.9 |
| 20260503223412 | 83 | 86 | 2.0 | 3.0 | 0.00 | 0.00 | 0.00 | 40 | 1015.0 |
| 20260503222912 | 83 | 282 | 5.0 | 5.0 | 0.00 | 0.00 | 0.00 | 40 | 1015.2 |
| 20260503222412 | 82 | 46 | 6.0 | 9.0 | 0.00 | 0.00 | 0.00 | 40 | 1015.1 |
| 20260503221913 | 83 | 25 | 4.0 | 5.0 | 0.00 | 0.00 | 0.00 | 41 | 1015.2 |
| 20260503221413 | 83 | 28 | 6.0 | 6.0 | 0.00 | 0.00 | 0.00 | 40 | 1015.3 |
| 20260503220913 | 82 | 89 | 3.0 | 4.0 | 0.00 | 0.00 | 0.00 | 41 | 1015.3 |
| 20260503220412 | 82 | 30 | 2.0 | 3.0 | 0.00 | 0.00 | 0.00 | 41 | 1015.6 |
| 20260503215912 | 82 | 83 | 6.0 | 7.0 | 0.00 | 0.00 | 0.00 | 41 | 1015.6 |
| 20260503215412 | 83 | 6 | 3.0 | 4.0 | 0.00 | 0.00 | 0.00 | 41 | 1015.7 |
| 20260503214913 | 82 | 260 | 3.0 | 3.0 | 0.00 | 0.00 | 0.00 | 41 | 1015.9 |
| 20260503214413 | 81 | 330 | 3.0 | 4.0 | 0.00 | 0.00 | 0.00 | 42 | 1015.8 |
| 20260503213913 | 82 | 14 | 6.0 | 7.0 | 0.00 | 0.00 | 0.00 | 41 | 1016.1 |
| 20260503213412 | 82 | 100 | 4.0 | 5.0 | 0.00 | 0.00 | 0.00 | 42 | 1016.3 |
| 20260503212912 | 81 | 138 | 4.0 | 4.0 | 0.00 | 0.00 | 0.00 | 42 | 1016.3 |
| 20260503212412 | 82 | 67 | 3.0 | 4.0 | 0.00 | 0.00 | 0.00 | 42 | 1016.7 |
| 20260503211913 | 82 | 1 | 1.0 | 2.0 | 0.00 | 0.00 | 0.00 | 42 | 1016.7 |
| 20260503211413 | 81 | 47 | 4.0 | 5.0 | 0.00 | 0.00 | 0.00 | 43 | 1016.9 |
| 20260503210913 | 82 | 306 | 5.0 | 6.0 | 0.00 | 0.00 | 0.00 | 42 | 1016.7 |
| 20260503210412 | 82 | 75 | 5.0 | 7.0 | 0.00 | 0.00 | 0.00 | 43 | 1017.1 |
| 20260503205912 | 81 | 23 | 2.0 | 3.0 | 0.00 | 0.00 | 0.00 | 42 | 1016.9 |
| 20260503205412 | 80 | 85 | 1.0 | 3.0 | 0.00 | 0.00 | 0.00 | 43 | 1017.2 |
| 20260503204912 | 80 | 112 | 3.0 | 5.0 | 0.00 | 0.00 | 0.00 | 43 | 1017.5 |
| 20260503204412 | 81 | 264 | 4.0 | 5.0 | 0.00 | 0.00 | 0.00 | 42 | 1017.5 |
| 20260503203913 | 81 | 341 | 2.0 | 3.0 | 0.00 | 0.00 | 0.00 | 43 | 1017.8 |
| 20260503203412 | 79 | 287 | 1.0 | 2.0 | 0.00 | 0.00 | 0.00 | 45 | 1018.1 |
| 20260503202912 | 80 | 158 | 1.0 | 2.0 | 0.00 | 0.00 | 0.00 | 44 | 1018.2 |
| 20260503202412 | 80 | 341 | 3.0 | 4.0 | 0.00 | 0.00 | 0.00 | 44 | 1018.0 |
| 20260503201912 | 79 | 346 | 4.0 | 9.0 | 0.00 | 0.00 | 0.00 | 45 | 1018.3 |
| 20260503201413 | 80 | 267 | 2.0 | 2.0 | 0.00 | 0.00 | 0.00 | 45 | 1018.3 |
| 20260503200913 | 80 | 277 | 5.0 | 7.0 | 0.00 | 0.00 | 0.00 | 45 | 1018.5 |
| 20260503200412 | 79 | 277 | 4.0 | 4.0 | 0.00 | 0.00 | 0.00 | 45 | 1018.5 |
| 20260503195912 | 78 | 69 | 5.0 | 5.0 | 0.00 | 0.00 | 0.00 | 46 | 1018.7 |
| 20260503195412 | 79 | 87 | 2.0 | 3.0 | 0.00 | 0.00 | 0.00 | 45 | 1018.4 |
| 20260503194913 | 77 | 349 | 2.0 | 3.0 | 0.00 | 0.00 | 0.00 | 47 | 1018.7 |
| 20260503194413 | 77 | 123 | 2.0 | 3.0 | 0.00 | 0.00 | 0.00 | 47 | 1018.4 |
| 20260503193913 | 78 | 38 | 4.0 | 6.0 | 0.00 | 0.00 | 0.00 | 47 | 1018.8 |
| 20260503193412 | 78 | 291 | 1.0 | 2.0 | 0.00 | 0.00 | 0.00 | 48 | 1018.5 |
| 20260503192912 | 78 | 286 | 4.0 | 5.0 | 0.00 | 0.00 | 0.00 | 46 | 1018.8 |
| 20260503192412 | 76 | 315 | 5.0 | 5.0 | 0.00 | 0.00 | 0.00 | 48 | 1019.1 |
| 20260503191913 | 76 | 308 | 5.0 | 7.0 | 0.00 | 0.00 | 0.00 | 49 | 1019.0 |
| 20260503191413 | 76 | 262 | 1.0 | 2.0 | 0.00 | 0.00 | 0.00 | 49 | 1019.2 |
| 20260503190913 | 75 | 88 | 2.0 | 3.0 | 0.00 | 0.00 | 0.00 | 51 | 1019.5 |
| 20260503190412 | 74 | 312 | 2.0 | 3.0 | 0.00 | 0.00 | 0.00 | 50 | 1019.4 |
| 20260503185912 | 75 | 72 | 2.0 | 3.0 | 0.00 | 0.00 | 0.00 | 50 | 1019.6 |
| 20260503185412 | 75 | 359 | 6.0 | 7.0 | 0.00 | 0.00 | 0.00 | 50 | 1019.7 |
| 20260503184913 | 74 | 18 | 2.0 | 3.0 | 0.00 | 0.00 | 0.00 | 49 | 1019.8 |
| 20260503184413 | 76 | 286 | 5.0 | 6.0 | 0.00 | 0.00 | 0.00 | 48 | 1020.2 |
| 20260503183913 | 73 | 154 | 4.0 | 5.0 | 0.00 | 0.00 | 0.00 | 51 | 1020.3 |
| 20260503183413 | 73 | 103 | 3.0 | 5.0 | 0.00 | 0.00 | 0.00 | 51 | 1020.4 |
| 20260503182913 | 74 | 165 | 4.0 | 6.0 | 0.00 | 0.00 | 0.00 | 49 | 1020.6 |
| 20260503182413 | 74 | 28 | 4.0 | 4.0 | 0.00 | 0.00 | 0.00 | 50 | 1020.8 |
| 20260503181913 | 74 | 52 | 2.0 | 2.0 | 0.00 | 0.00 | 0.00 | 49 | 1021.1 |
| 20260503181413 | 74 | 78 | 1.0 | 2.0 | 0.00 | 0.00 | 0.00 | 50 | 1021.0 |
| 20260503180913 | 74 | 8 | 2.0 | 3.0 | 0.00 | 0.00 | 0.00 | 50 | 1021.2 |
| 20260503180412 | 74 | 70 | 2.0 | 3.0 | 0.00 | 0.00 | 0.00 | 50 | 1021.2 |
| 20260503175912 | 73 | 242 | 1.0 | 2.0 | 0.00 | 0.00 | 0.00 | 51 | 1021.5 |
| 20260503175412 | 72 | 125 | 2.0 | 3.0 | 0.00 | 0.00 | 0.00 | 51 | 1021.6 |
| 20260503174913 | 74 | 135 | 2.0 | 3.0 | 0.00 | 0.00 | 0.00 | 50 | 1021.6 |
| 20260503174412 | 72 | 173 | 2.0 | 3.0 | 0.00 | 0.00 | 0.00 | 50 | 1021.7 |
| 20260503173913 | 71 | 149 | 2.0 | 4.0 | 0.00 | 0.00 | 0.00 | 52 | 1021.7 |
| 20260503173412 | 70 | 192 | 1.0 | 2.0 | 0.00 | 0.00 | 0.00 | 53 | 1021.9 |
| 20260503172912 | 73 | 95 | 5.0 | 6.0 | 0.00 | 0.00 | 0.00 | 51 | 1022.0 |
| 20260503172413 | 73 | 249 | 1.0 | 2.0 | 0.00 | 0.00 | 0.00 | 50 | 1022.0 |
| 20260503171913 | 71 | 51 | 3.0 | 5.0 | 0.00 | 0.00 | 0.00 | 53 | 1022.1 |
| 20260503171413 | 73 | 180 | 3.0 | 3.0 | 0.00 | 0.00 | 0.00 | 51 | 1022.4 |
| 20260503170913 | 72 | 120 | 3.0 | 4.0 | 0.00 | 0.00 | 0.00 | 51 | 1022.1 |
| 20260503170412 | 70 | 199 | 2.0 | 2.0 | 0.00 | 0.00 | 0.00 | 53 | 1022.4 |
| 20260503150913 | 67 | 262 | 2.0 | 3.0 | 0.00 | 0.00 | 0.00 | 56 | 1023.1 |
| 20260503150412 | 67 | 294 | 1.0 | 2.0 | 0.00 | 0.00 | 0.00 | 55 | 1023.1 |
| 20260503131412 | 62 | 224 | 1.0 | 2.0 | 0.00 | 0.00 | 0.00 | 66 | 1022.4 |
| 20260503130913 | 62 | 260 | 1.0 | 2.0 | 0.00 | 0.00 | 0.00 | 67 | 1022.1 |
| 20260503130413 | 61 | 256 | 2.0 | 3.0 | 0.00 | 0.00 | 0.00 | 67 | 1022.3 |
| 20260503110412 | 59 | 240 | 0.0 | 0.0 | 0.00 | 0.00 | 0.00 | 71 | 1020.7 |
| 20260503090412 | 61 | 208 | 3.0 | 4.0 | 0.00 | 0.00 | 0.00 | 68 | 1021.0 |
| 20260503081412 | 60 | 227 | 2.0 | 3.0 | 0.00 | 0.00 | 0.00 | 67 | 1021.2 |
| 20260503080913 | 60 | 213 | 2.0 | 3.0 | 0.00 | 0.00 | 0.00 | 67 | 1021.3 |
| 20260503080412 | 60 | 225 | 2.0 | 3.0 | 0.00 | 0.00 | 0.00 | 68 | 1021.1 |
| 20260503072912 | 60 | 170 | 5.0 | 6.0 | 0.00 | 0.00 | 0.00 | 69 | 1021.4 |
| 20260503072413 | 60 | 191 | 5.0 | 6.0 | 0.00 | 0.00 | 0.00 | 68 | 1021.5 |
| 20260503071912 | 60 | 218 | 2.0 | 3.0 | 0.00 | 0.00 | 0.00 | 67 | 1021.5 |
| 20260503071412 | 60 | 260 | 1.0 | 2.0 | 0.00 | 0.00 | 0.00 | 67 | 1021.2 |
| 20260503070912 | 60 | 265 | 2.0 | 3.0 | 0.00 | 0.00 | 0.00 | 67 | 1021.3 |
| 20260503070413 | 60 | 231 | 0.0 | 0.0 | 0.00 | 0.00 | 0.00 | 68 | 1021.2 |
| 20260503054912 | 62 | 286 | 2.0 | 2.0 | 0.00 | 0.00 | 0.00 | 67 | 1021.6 |
| 20260503054412 | 63 | 306 | 2.0 | 3.0 | 0.00 | 0.00 | 0.00 | 66 | 1021.3 |
| 20260503053912 | 63 | 302 | 2.0 | 3.0 | 0.00 | 0.00 | 0.00 | 65 | 1021.6 |
| 20260503053413 | 63 | 318 | 3.0 | 4.0 | 0.00 | 0.00 | 0.00 | 65 | 1021.5 |
| 20260503052913 | 63 | 334 | 3.0 | 3.0 | 0.00 | 0.00 | 0.00 | 65 | 1021.5 |
| 20260503052413 | 63 | 324 | 4.0 | 5.0 | 0.00 | 0.00 | 0.00 | 65 | 1021.4 |
| 20260503051912 | 64 | 326 | 3.0 | 4.0 | 0.00 | 0.00 | 0.00 | 65 | 1021.5 |
| 20260503051412 | 64 | 280 | 2.0 | 3.0 | 0.00 | 0.00 | 0.00 | 64 | 1021.6 |
| 20260503050913 | 64 | 355 | 4.0 | 5.0 | 0.00 | 0.00 | 0.00 | 64 | 1021.7 |
| 20260503050413 | 64 | 349 | 3.0 | 5.0 | 0.00 | 0.00 | 0.00 | 64 | 1021.6 |
| 20260503045913 | 64 | 294 | 2.0 | 3.0 | 0.00 | 0.00 | 0.00 | 65 | 1021.4 |
| 20260503045413 | 64 | 317 | 2.0 | 3.0 | 0.00 | 0.00 | 0.00 | 65 | 1021.3 |
| 20260503044912 | 64 | 327 | 1.0 | 2.0 | 0.00 | 0.00 | 0.00 | 65 | 1021.4 |
| 20260503044412 | 64 | 346 | 3.0 | 5.0 | 0.00 | 0.00 | 0.00 | 64 | 1021.3 |
| 20260503043912 | 64 | 305 | 2.0 | 3.0 | 0.00 | 0.00 | 0.00 | 63 | 1021.5 |
| 20260503043413 | 65 | 33 | 2.0 | 3.0 | 0.00 | 0.00 | 0.00 | 63 | 1021.3 |
| 20260503042913 | 65 | 357 | 2.0 | 3.0 | 0.00 | 0.00 | 0.00 | 62 | 1021.2 |
| 20260503042413 | 65 | 29 | 2.0 | 3.0 | 0.00 | 0.00 | 0.00 | 62 | 1021.5 |
| 20260503041912 | 65 | 51 | 2.0 | 3.0 | 0.00 | 0.00 | 0.00 | 61 | 1021.4 |
| 20260503041412 | 65 | 36 | 3.0 | 5.0 | 0.00 | 0.00 | 0.00 | 61 | 1021.4 |
| 20260503040912 | 65 | 354 | 4.0 | 4.0 | 0.00 | 0.00 | 0.00 | 60 | 1021.7 |
| 20260503040413 | 65 | 336 | 2.0 | 3.0 | 0.00 | 0.00 | 0.00 | 60 | 1021.2 |
| 20260503035912 | 66 | 53 | 2.0 | 3.0 | 0.00 | 0.00 | 0.00 | 60 | 1021.4 |
| 20260503035412 | 66 | 271 | 1.0 | 2.0 | 0.00 | 0.00 | 0.00 | 60 | 1021.5 |
| 20260503034912 | 66 | 254 | 1.0 | 2.0 | 0.00 | 0.00 | 0.00 | 60 | 1021.5 |
| 20260503034412 | 66 | 307 | 2.0 | 2.0 | 0.00 | 0.00 | 0.00 | 60 | 1021.3 |
| 20260503033913 | 66 | 336 | 3.0 | 4.0 | 0.00 | 0.00 | 0.00 | 60 | 1021.3 |
| 20260503033412 | 66 | 4 | 1.0 | 2.0 | 0.00 | 0.00 | 0.00 | 60 | 1021.2 |
| 20260503032912 | 66 | 351 | 2.0 | 2.0 | 0.00 | 0.00 | 0.00 | 60 | 1021.1 |
| 20260503032412 | 66 | 287 | 1.0 | 2.0 | 0.00 | 0.00 | 0.00 | 61 | 1021.1 |
| 20260503031912 | 66 | 339 | 2.0 | 3.0 | 0.00 | 0.00 | 0.00 | 61 | 1021.4 |
| 20260503031412 | 66 | 319 | 3.0 | 4.0 | 0.00 | 0.00 | 0.00 | 60 | 1021.1 |
| 20260503030913 | 66 | 343 | 2.0 | 3.0 | 0.00 | 0.00 | 0.00 | 60 | 1021.0 |
| 20260503030413 | 66 | 331 | 1.0 | 2.0 | 0.00 | 0.00 | 0.00 | 60 | 1021.0 |
| 20260503025912 | 66 | 357 | 2.0 | 2.0 | 0.00 | 0.00 | 0.00 | 59 | 1021.0 |
| 20260503025412 | 66 | 336 | 1.0 | 2.0 | 0.00 | 0.00 | 0.00 | 59 | 1021.0 |
| 20260503024912 | 67 | 202 | 1.0 | 2.0 | 0.00 | 0.00 | 0.00 | 58 | 1020.6 |
| 20260503024412 | 67 | 7 | 2.0 | 3.0 | 0.00 | 0.00 | 0.00 | 58 | 1020.6 |
| 20260503023913 | 67 | 313 | 2.0 | 2.0 | 0.00 | 0.00 | 0.00 | 57 | 1020.5 |
| 20260503023413 | 67 | 296 | 3.0 | 4.0 | 0.00 | 0.00 | 0.00 | 57 | 1020.5 |
| 20260503022912 | 67 | 290 | 2.0 | 3.0 | 0.00 | 0.00 | 0.00 | 57 | 1020.6 |
| 20260503022412 | 67 | 6 | 1.0 | 2.0 | 0.00 | 0.00 | 0.00 | 56 | 1020.7 |
| 20260503021912 | 67 | 288 | 2.0 | 3.0 | 0.00 | 0.00 | 0.00 | 56 | 1020.7 |
| 20260503021412 | 67 | 297 | 1.0 | 2.0 | 0.00 | 0.00 | 0.00 | 56 | 1020.8 |
| 20260503020913 | 68 | 352 | 3.0 | 4.0 | 0.00 | 0.00 | 0.00 | 56 | 1020.6 |
| 20260503020413 | 68 | 326 | 4.0 | 5.0 | 0.00 | 0.00 | 0.00 | 55 | 1020.4 |
| 20260503015913 | 68 | 313 | 1.0 | 2.0 | 0.00 | 0.00 | 0.00 | 56 | 1020.1 |
| 20260503015412 | 68 | 5 | 3.0 | 4.0 | 0.00 | 0.00 | 0.00 | 55 | 1020.3 |
| 20260503014912 | 68 | 336 | 3.0 | 5.0 | 0.00 | 0.00 | 0.00 | 55 | 1020.3 |
| 20260503014412 | 68 | 352 | 2.0 | 4.0 | 0.00 | 0.00 | 0.00 | 56 | 1020.3 |
| 20260503013913 | 68 | 15 | 2.0 | 3.0 | 0.00 | 0.00 | 0.00 | 56 | 1020.5 |
| 20260503013412 | 68 | 14 | 3.0 | 4.0 | 0.00 | 0.00 | 0.00 | 56 | 1020.2 |
| 20260503012912 | 68 | 24 | 2.0 | 3.0 | 0.00 | 0.00 | 0.00 | 56 | 1020.4 |
| 20260503012412 | 68 | 335 | 3.0 | 4.0 | 0.00 | 0.00 | 0.00 | 56 | 1020.3 |
| 20260503011912 | 68 | 30 | 2.0 | 5.0 | 0.00 | 0.00 | 0.00 | 55 | 1020.2 |
| 20260503011412 | 68 | 14 | 3.0 | 4.0 | 0.00 | 0.00 | 0.00 | 55 | 1020.3 |
| 20260503010913 | 68 | 327 | 3.0 | 4.0 | 0.00 | 0.00 | 0.00 | 56 | 1020.0 |
| 20260503010412 | 68 | 353 | 2.0 | 4.0 | 0.00 | 0.00 | 0.00 | 55 | 1019.9 |
| 20260503005912 | 68 | 71 | 3.0 | 5.0 | 0.00 | 0.00 | 0.00 | 55 | 1019.9 |
| 20260503005412 | 68 | 310 | 2.0 | 3.0 | 0.00 | 0.00 | 0.00 | 55 | 1019.7 |
| 20260503004912 | 68 | 300 | 1.0 | 2.0 | 0.00 | 0.00 | 0.00 | 56 | 1019.7 |
| 20260503004412 | 69 | 348 | 4.0 | 5.0 | 0.00 | 0.00 | 0.00 | 55 | 1019.8 |
| 20260503003913 | 69 | 346 | 5.0 | 7.0 | 0.00 | 0.00 | 0.00 | 55 | 1019.7 |
| 20260503003412 | 69 | 299 | 4.0 | 5.0 | 0.00 | 0.00 | 0.00 | 54 | 1019.7 |
| 20260503002912 | 70 | 0 | 3.0 | 5.0 | 0.00 | 0.00 | 0.00 | 53 | 1019.9 |
| 20260503002412 | 69 | 41 | 2.0 | 4.0 | 0.00 | 0.00 | 0.00 | 54 | 1019.8 |
| 20260503001912 | 69 | 26 | 2.0 | 4.0 | 0.00 | 0.00 | 0.00 | 54 | 1019.7 |
| 20260503001412 | 69 | 3 | 3.0 | 4.0 | 0.00 | 0.00 | 0.00 | 54 | 1019.7 |
| 20260503000913 | 69 | 22 | 2.0 | 4.0 | 0.00 | 0.00 | 0.00 | 54 | 1019.9 |
| 20260503000415 | 69 | 36 | 2.0 | 3.0 | 0.00 | 0.00 | 0.00 | 54 | 1019.7 |
| 20260502235912 | 69 | 314 | 2.0 | 3.0 | 0.00 | 0.00 | 0.00 | 54 | 1019.7 |
| 20260502235412 | 69 | 36 | 3.0 | 5.0 | 0.00 | 0.00 | 0.00 | 54 | 1019.8 |
| 20260502234913 | 70 | 62 | 2.0 | 3.0 | 0.00 | 0.00 | 0.00 | 53 | 1019.7 |
| 20260502234413 | 70 | 28 | 2.0 | 3.0 | 0.00 | 0.00 | 0.00 | 53 | 1019.7 |
| 20260502233913 | 70 | 28 | 6.0 | 7.0 | 0.00 | 0.00 | 0.00 | 52 | 1019.8 |
| 20260502233412 | 70 | 40 | 3.0 | 4.0 | 0.00 | 0.00 | 0.00 | 53 | 1019.8 |
| 20260502232912 | 70 | 303 | 3.0 | 4.0 | 0.00 | 0.00 | 0.00 | 53 | 1019.8 |
| 20260502232412 | 70 | 293 | 4.0 | 5.0 | 0.00 | 0.00 | 0.00 | 53 | 1019.7 |
| 20260502231912 | 70 | 322 | 5.0 | 6.0 | 0.00 | 0.00 | 0.00 | 53 | 1019.9 |
| 20260502231412 | 70 | 28 | 2.0 | 2.0 | 0.00 | 0.00 | 0.00 | 54 | 1019.8 |
| 20260502230913 | 70 | 278 | 4.0 | 6.0 | 0.00 | 0.00 | 0.00 | 55 | 1019.8 |